Change the Weather History Date:

Saturday, March 30, 2013

  Actual Average Record
Temperature  
Mean Temperature 32 °F -  
Max Temperature 38 °F 55 °F 69 °F (1998)
Min Temperature 25 °F 40 °F 25 °F (2013)
Degree Days  
Heating Degree Days 34    
Moisture  
Dew Point 25 °F    
Average Humidity 77    
Maximum Humidity 93    
Minimum Humidity 43    
Precipitation  
Precipitation 0.00 in - - ()
Sea Level Pressure  
Sea Level Pressure 29.75 in    
Wind  
Wind Speed 6 mph ()    
Max Wind Speed 13 mph    
Max Gust Speed -    
Visibility 3.3 miles    
Events Snow    
Averages and records for this station are not official NWS values.
T = Trace of Precipitation, MM = Missing Value Source: Averaged Metar Reports

Daily Weather History Graph

Daily Weather History Graph

Search for Another Location

Airport or City:

Trip Planner

Search our weather history database for the weather conditions in past years. The results will help you decide how hot, cold, wet, or windy it might be!

Date:

Astronomy

Mar. 30, 2013 Rise Set
Actual Time 6:18 AM CET 7:07 PM CET
Civil Twilight 5:45 AM CET 7:40 PM CET
Nautical Twilight 5:05 AM CET 8:20 PM CET
Astronomical Twilight 4:23 AM CET 9:02 PM CET
Moon 11:22 PM CET (3/30) 7:38 AM CET (3/30)
Length of Visible Light 13h 55m
Length of Day
12h 48m
Waning Gibbous, 88% of the Moon is Illuminated
Mar 30
Waning Gibbous
Apr 3
Last Quarter
Apr 10
New
Apr 18
First Quarter
Apr 25
Full

Hourly Weather History & Observations

Time (CET) Temp. Windchill Dew Point Humidity Pressure Visibility Wind Dir Wind Speed Gust Speed Precip Events Conditions
12:20 AM 26.6 °F - 21.2 °F 80% 29.74 in - NE 2.3 mph - N/A   Haze
12:50 AM 26.6 °F 22.6 °F 21.2 °F 80% 29.74 in - NNE 3.5 mph - N/A   Scattered Clouds
1:00 AM 27 °F - 22 °F 74% 29.78 in 2 mi NNE 4.5 mph - -   Mist
1:20 AM 26.6 °F 21.2 °F 21.2 °F 80% 29.71 in 2.2 mi NE 4.6 mph - N/A   Scattered Clouds
1:50 AM 24.8 °F 19.1 °F 21.2 °F 86% 29.71 in 2.2 mi NE 4.6 mph - N/A   Scattered Clouds
2:20 AM 26.6 °F 20.0 °F 23.0 °F 86% 29.71 in 2.2 mi ENE 5.8 mph - N/A   Scattered Clouds
2:50 AM 28.4 °F 24.6 °F 24.8 °F 86% 29.71 in 1.9 mi East 3.5 mph - N/A   Mostly Cloudy
3:20 AM 28.4 °F 24.6 °F 24.8 °F 86% 29.71 in 1.9 mi East 3.5 mph - N/A   Mostly Cloudy
3:50 AM 26.6 °F 22.6 °F 24.8 °F 93% 29.71 in 1.6 mi NNE 3.5 mph - N/A   Mostly Cloudy
4:00 AM 27 °F - 24 °F 84% 29.76 in 2 mi NNE 2.2 mph - -   Mist
4:20 AM 24.8 °F 17.9 °F 23.0 °F 93% 29.71 in 1.1 mi NE 5.8 mph - N/A   Mostly Cloudy
4:50 AM 26.6 °F 19.1 °F 24.8 °F 93% 29.71 in 1.1 mi ENE 6.9 mph - N/A   Mostly Cloudy
5:20 AM 26.6 °F 18.2 °F 24.8 °F 93% 29.71 in 1.1 mi NE 8.1 mph - N/A   Mostly Cloudy
5:50 AM 26.6 °F 20.0 °F 24.8 °F 93% 29.71 in 1.1 mi NNE 5.8 mph - N/A   Mostly Cloudy
6:20 AM 28.4 °F 23.3 °F 24.8 °F 86% 29.71 in 1.4 mi NE 4.6 mph - N/A   Mostly Cloudy
6:50 AM 28.4 °F 22.2 °F 26.6 °F 93% 29.71 in 1.1 mi NNE 5.8 mph - N/A   Mostly Cloudy
7:00 AM 29 °F - 26 °F 85% 29.77 in 1 mi NNE 6.7 mph - -   Mist
7:20 AM 28.4 °F 21.2 °F 26.6 °F 93% 29.71 in 0.8 mi NNE 6.9 mph - N/A   Mostly Cloudy
7:50 AM 28.4 °F 20.4 °F 26.6 °F 93% 29.71 in 0.7 mi NNE 8.1 mph - N/A Snow Light Snow Grains
8:20 AM 30.2 °F 23.4 °F 26.6 °F 86% 29.74 in 0.7 mi NNE 6.9 mph - N/A Snow Light Snow
8:50 AM 28.4 °F 20.4 °F 26.6 °F 93% 29.74 in 0.7 mi NNE 8.1 mph - N/A Snow Light Snow
9:20 AM 30.2 °F 21.9 °F 26.6 °F 86% 29.74 in 0.7 mi NNE 9.2 mph - N/A Snow Light Snow
9:50 AM 30.2 °F 20.8 °F 26.6 °F 86% 29.74 in 1.0 mi NE 11.5 mph - N/A   Mostly Cloudy
10:00 AM 30 °F - 27 °F 82% 29.78 in 1 mi NE 11.2 mph - - Snow Light Snow
10:20 AM 30.2 °F 20.8 °F 26.6 °F 86% 29.74 in 1.6 mi NE 11.5 mph - N/A   Mostly Cloudy
10:50 AM 32.0 °F 22.5 °F 26.6 °F 80% 29.74 in - ENE 12.7 mph - N/A   Mostly Cloudy
11:20 AM 33.8 °F 25.3 °F 26.6 °F 75% 29.74 in - NE 11.5 mph - N/A   Haze
11:50 AM 33.8 °F 25.3 °F 26.6 °F 75% 29.74 in - NNE 11.5 mph - N/A   Haze
12:20 PM 33.8 °F 25.8 °F 24.8 °F 70% 29.74 in 3.1 mi NE 10.4 mph - N/A   Haze
12:50 PM 33.8 °F 25.3 °F 23.0 °F 65% 29.74 in 3.7 mi NE 11.5 mph - N/A   Mostly Cloudy
1:00 PM 35 °F - 23 °F 50% 29.78 in 4 mi NE 11.2 mph - -   Partly Cloudy
1:20 PM 35.6 °F 28.0 °F 23.0 °F 60% 29.74 in 4.3 mi NE 10.4 mph - N/A   Mostly Cloudy
1:50 PM 35.6 °F 28.6 °F 24.8 °F 65% 29.74 in 4.3 mi North 9.2 mph - N/A   Mostly Cloudy
2:20 PM 35.6 °F 28.0 °F 23.0 °F 60% 29.74 in 4.3 mi NE 10.4 mph - N/A   Mostly Cloudy
2:50 PM 37.4 °F 30.3 °F 23.0 °F 56% 29.74 in 4.3 mi NNE 10.4 mph - N/A   Mostly Cloudy
3:20 PM 37.4 °F 32.1 °F 23.0 °F 56% 29.74 in 4.3 mi NNE 6.9 mph - N/A   Mostly Cloudy
3:50 PM 37.4 °F 30.8 °F 23.0 °F 56% 29.74 in 5.0 mi NNE 9.2 mph - N/A   Mostly Cloudy
4:00 PM 37 °F - 23 °F 43% 29.78 in 5 mi NNE 8.9 mph - -   Mostly Cloudy
4:20 PM 37.4 °F 29.8 °F 21.2 °F 52% 29.74 in 5.0 mi North 11.5 mph - N/A   Mostly Cloudy
4:50 PM 35.6 °F 28.0 °F 23.0 °F 60% 29.74 in 5.0 mi NE 10.4 mph - N/A   Mostly Cloudy
5:20 PM 37.4 °F 30.3 °F 24.8 °F 60% 29.74 in 5.0 mi North 10.4 mph - N/A   Mostly Cloudy
5:50 PM 35.6 °F 29.2 °F 23.0 °F 60% 29.77 in 5.0 mi North 8.1 mph - N/A   Mostly Cloudy
6:20 PM 35.6 °F 29.2 °F 23.0 °F 60% 29.77 in 5.0 mi North 8.1 mph - N/A   Mostly Cloudy
6:50 PM 33.8 °F 25.3 °F 24.8 °F 70% 29.77 in 5.6 mi NNE 11.5 mph - N/A   Mostly Cloudy
7:00 PM 34 °F - 26 °F 61% 29.81 in 6 mi NNE 11.2 mph - -   Mostly Cloudy
7:20 PM 33.8 °F 26.4 °F 24.8 °F 70% 29.77 in 5.6 mi NNE 9.2 mph - N/A   Mostly Cloudy
7:50 PM 33.8 °F 28.6 °F 26.6 °F 75% 29.80 in 5.6 mi North 5.8 mph - N/A   Partly Cloudy
8:20 PM 32.0 °F 26.4 °F 26.6 °F 80% 29.80 in 5.6 mi North 5.8 mph - N/A   Partly Cloudy
8:50 PM 30.2 °F 24.3 °F 24.8 °F 80% 29.80 in 5.6 mi NNE 5.8 mph - N/A   Partly Cloudy
9:20 PM 30.2 °F 23.4 °F 24.8 °F 80% 29.83 in 5.6 mi NNE 6.9 mph - N/A   Mostly Cloudy
9:50 PM 32.0 °F 25.6 °F 24.8 °F 75% 29.83 in 5.6 mi North 6.9 mph - N/A   Mostly Cloudy
10:00 PM 31 °F - 25 °F 69% 29.87 in 6 mi North 6.7 mph - -   Mostly Cloudy
10:20 PM 30.2 °F 22.6 °F 26.6 °F 86% 29.83 in 5.6 mi North 8.1 mph - N/A   Mostly Cloudy
10:50 PM 28.4 °F 20.4 °F 26.6 °F 93% 29.83 in 5.0 mi North 8.1 mph - N/A   Scattered Clouds
11:20 PM 28.4 °F 22.2 °F 24.8 °F 86% 29.83 in 4.3 mi NNE 5.8 mph - N/A   Partly Cloudy
11:50 PM 28.4 °F 23.3 °F 24.8 °F 86% 29.83 in 3.7 mi North 4.6 mph - N/A   Partly Cloudy